2 Line ISS Keps 1-21
21 Jan
2009
21 Jan
'09
4:42 p.m.
ISS 1 25544U 98067A 09021.56829861 .00011449 00000-0 95875-4 0 1154 2 25544 051.6439 337.4961 0007734 291.5842 042.8070 15.70494216582886
5813
Age (days ago)
5813
Last active (days ago)
0 comments
1 participants
participants (1)
-
Dave Larsen PhD